Weather History for Asheville, NC

Change the Weather History Date:

Wednesday, July 9, 2014

  Actual Average Record
Temperature  
Mean Temperature 72 °F 74 °F  
Max Temperature 80 °F 84 °F 93 °F (1986)
Min Temperature 64 °F 64 °F 49 °F (1896)
Degree Days  
Heating Degree Days 0 0  
Month to date heating degree days 0 0  
Since 1 June heating degree days 0 14  
Since 1 July heating degree days 0 0  
Cooling Degree Days 7 9  
Month to date cooling degree days 63 77  
Year to date cooling degree days 370 312  
Since 1 June cooling degree days 289 254  
Growing Degree Days 22 (Base 50)    
Moisture  
Dew Point 65 °F    
Average Humidity 76    
Maximum Humidity 93    
Minimum Humidity 58    
Precipitation  
Precipitation 0.78 in 0.15 in 2.55 in (1896)
Month to date precipitation 0.89 1.29  
Year to date precipitation 22.79 24.19  
Snow  
Snow 0.00 in 0.00 in 0.00 in ()
Month to date snowfall 0.0 0.0  
Since 1 June snowfall 0.0 0.0  
Since 1 July snowfall 0.0 0.0  
Snow Depth 0.00 in    
Sea Level Pressure  
Sea Level Pressure 30.03 in    
Wind  
Wind Speed 3 mph (NNW)    
Max Wind Speed 26 mph    
Max Gust Speed 33 mph    
Visibility 10 miles    
Events Rain , Thunderstorm    
T = Trace of Precipitation, MM = Missing Value Source: NWS Daily Summary

Daily Weather History Graph

Daily Weather History Graph

Search for Another Location

Airport:

Trip Planner

Search our weather history database for the weather conditions in past years. The results will help you decide how hot, cold, wet, or windy it might be!

Date:

Astronomy

Jul. 09, 2014 Rise Set
Actual Time 6:22 AM EDT 8:47 PM EDT
Civil Twilight 5:53 AM EDT 9:17 PM EDT
Nautical Twilight 5:16 AM EDT 9:53 PM EDT
Astronomical Twilight 4:36 AM EDT 10:33 PM EDT
Moon 6:00 PM EDT (7/9) 3:37 AM EDT (7/9)
Length of Visible Light 15h 24m
Length of Day
14h 25m
Waxing Gibbous, 89% of the Moon is Illuminated
Jul 9
Waxing Gibbous
Jul 12
Full
Jul 18
Last Quarter
Jul 26
New
Aug 3
First Quarter

Hourly Weather History & Observations

Time (EDT) Temp. Heat Index Dew Point Humidity Pressure Visibility Wind Dir Wind Speed Gust Speed Precip Events Conditions
12:39 AM 68.0 °F - 64.9 °F 90% 30.09 in 10.0 mi Calm Calm - N/A   Mostly Cloudy
12:54 AM 68.0 °F - 64.9 °F 90% 30.00 in 10.0 mi Calm Calm - N/A   Mostly Cloudy
1:54 AM 66.2 °F - 64.4 °F 94% 30.08 in 10.0 mi Calm Calm - N/A   Partly Cloudy
2:25 AM 66.9 °F - 64.9 °F 93% 30.07 in 10.0 mi Calm Calm - N/A   Partly Cloudy
2:54 AM 66.9 °F - 64.9 °F 93% 29.97 in 10.0 mi Calm Calm - N/A   Partly Cloudy
3:54 AM 68.0 °F - 64.9 °F 90% 29.97 in 10.0 mi North 4.6 mph - N/A   Overcast
4:32 AM 66.9 °F - 64.9 °F 93% 30.06 in 10.0 mi Calm Calm - N/A   Overcast
4:54 AM 66.9 °F - 64.9 °F 93% 29.98 in 10.0 mi Calm Calm - N/A   Mostly Cloudy
5:54 AM 66.9 °F - 64.9 °F 93% 29.99 in 10.0 mi NNW 6.9 mph - N/A   Mostly Cloudy
6:54 AM 66.9 °F - 64.9 °F 93% 30.00 in 10.0 mi Calm Calm - N/A   Overcast
7:01 AM 66.9 °F - 64.9 °F 93% 30.08 in 10.0 mi Calm Calm - N/A   Overcast
7:54 AM 66.9 °F - 64.0 °F 90% 30.02 in 10.0 mi North 5.8 mph - N/A   Scattered Clouds
8:54 AM 69.1 °F - 64.9 °F 87% 30.03 in 10.0 mi WNW 5.8 mph - N/A   Partly Cloudy
9:54 AM 70.0 °F - 64.9 °F 84% 30.02 in 10.0 mi WNW 3.5 mph - N/A   Mostly Cloudy
10:54 AM 73.0 °F - 66.0 °F 79% 30.02 in 10.0 mi Calm Calm - N/A   Partly Cloudy
11:54 AM 73.9 °F - 66.0 °F 76% 30.04 in 10.0 mi Variable 3.5 mph - N/A   Clear
12:54 PM 75.9 °F - 63.0 °F 64% 30.03 in 10.0 mi Calm Calm - N/A   Partly Cloudy
1:54 PM 75.9 °F - 64.9 °F 69% 30.01 in 10.0 mi South 3.5 mph - 0.00 in   Overcast
2:54 PM 78.1 °F - 63.0 °F 60% 30.01 in 10.0 mi NW 5.8 mph - N/A   Mostly Cloudy
3:54 PM 75.9 °F - 63.0 °F 64% 29.99 in 10.0 mi North 8.1 mph - N/A   Overcast
4:54 PM 80.1 °F 81.7 °F 64.0 °F 58% 29.98 in 10.0 mi North 6.9 mph - N/A   Partly Cloudy
5:54 PM 79.0 °F - 64.0 °F 60% 29.97 in 10.0 mi NNW 4.6 mph - N/A   Scattered Clouds
6:54 PM 79.0 °F - 63.0 °F 58% 29.98 in 10.0 mi NE 3.5 mph - N/A   Scattered Clouds
7:54 PM 78.1 °F - 64.0 °F 62% 29.99 in 10.0 mi Calm Calm - 0.00 in   Mostly Cloudy
8:54 PM 75.0 °F - 66.9 °F 76% 30.00 in 10.0 mi Calm Calm - N/A   Overcast
9:08 PM 73.9 °F - 68.0 °F 82% 30.06 in 10.0 mi Calm Calm - 0.00 in Rain , Thunderstorm Light Rain
9:49 PM 66.2 °F - 62.6 °F 88% 30.10 in 10.0 mi NNW 13.8 mph 33.4 mph 0.29 in Rain , Thunderstorm Heavy Thunderstorms and Rain
9:54 PM 66.9 °F - 64.0 °F 90% 30.04 in 10.0 mi NNW 10.4 mph 24.2 mph 0.33 in Rain , Thunderstorm Heavy Thunderstorms and Rain
10:32 PM 64.9 °F - - N/A% 30.15 in 10.0 mi South 9.2 mph - 0.13 in Rain , Thunderstorm Rain
10:54 PM 64.9 °F - - N/A% 30.08 in 10.0 mi Calm Calm - 0.36 in Rain Heavy Rain
11:54 PM 64.9 °F - - N/A% 30.08 in 10.0 mi Calm Calm - 0.07 in Rain Light Rain